Other Public Products
Issued by NWS Charleston, SC

Current Version | Previous Version | Graphics & Text | Print | Product List | Glossary On
Versions: 1 2 3 4 5 6 7 8 9 10 11 12 13 14 15 16 17 18 19 20 21 22 23 24 25 26 27 28 29 30 31 32 33 34 35 36 37 38 39 40 41 42 43 44 45 46 47 48 49 50
255
FPUS82 KCHS 220141
OPUCHS

TEST...KCHS/KSAV Gateway Observations...TEST
National Weather Service Charleston SC
900 PM EDT THU SEP 21 2017

NOTE: "fair" indicates few or no clouds below 12,000 feet with no
significant weather and/or obstructions to visibility.

SCZ050-WAZ558-NCZ071-TXZ119-213-PAZ071-DCZ001-FLZ074-172-MI076-
NYZ176-178-MAZ016-IL014-TNZ027-NJZ106-GAZ044-MD014-220200-

...Gateway Observations for Charleston International...

CITY           SKY/WX    TMP DP  RH WIND       PRES   REMARKS
Chas Airport   CLOUDY    76  66  71 NE6       30.02F
Seattle        PTSUNNY   62  46  55 NW3       29.97R
Charlotte      PTCLDY    79  66  64 NE6       30.04R
Dallas DFW     PTCLDY    90  66  45 SE12      29.84S HX  92
Dallas Love    PTCLDY    89  68  49 SE17      29.86R HX  93
Philladelphia  MOCLDY    78  59  51 E3        30.01R
Wash National  MOCLDY    80  66  62 N7        30.03R
Baltimore      MOCLDY    75  67  76 CALM      30.02S
Miami          CLOUDY    83  77  82 NE6       29.91R HX  92
Detroit        CLOUDY    78  70  76 W3        30.10R
Newark         CLOUDY    75  62  64 N14       30.01R
Laguardia      CLOUDY    75  64  68 N10       30.01R
J F K          CLOUDY    75  65  70 N10       30.02R
Boston Logan   CLOUDY    66  54  65 N17       30.03R
Ft. Lauderdale MOCLDY    82  77  84 NE9       29.90R HX  90
Chicago O`Hare PTCLDY    85  69  58 S7        29.99R
Chicago Midway PTCLDY    85  71  63 E6        30.00R HX  90
Houston Bush   CLOUDY    77  73  87 S3        29.92S
Houston Hobby  CLOUDY    78  74  87 E3        29.91F
Nashville      PTCLDY    75  71  87 CALM      30.03R
Atlanta        MOCLDY    79  65  62 NW6       30.03R

$$

GAZ044-118-TXZ119-213-NCZ071-DCZ001-MDZ014-506-PAZ021-071-NJZ106-
NYZ176-178-MAZ106-OHZ011-021-055-MIZ076-KYZ091-ILZ014-INZ047-
MNZ060-ONZ431-220200-

...Gateway Observations for Savannah International...

CITY           SKY/WX    TMP DP  RH WIND       PRES   REMARKS
Savannah Arpt  PTCLDY    78  72  81 E3        30.02R
Atlanta        MOCLDY    79  65  62 NW6       30.03R
Charlotte      PTCLDY    79  66  64 NE6       30.04R
Dallas DFW     PTCLDY    90  66  45 SE12      29.84S HX  92
Houston Bush   CLOUDY    77  73  87 S3        29.92S
Wash National  MOCLDY    80  66  62 N7        30.03R
Wash Dulles    MOCLDY    69  65  86 CALM      30.04R
Baltimore      MOCLDY    75  67  76 CALM      30.02S
Philadelphia   MOCLDY    78  59  51 E3        30.01R
Newark         CLOUDY    75  62  64 N14       30.01R
Laguardia      CLOUDY    75  64  68 N10       30.01R
J F K          CLOUDY    75  65  70 N10       30.02R
Boston         CLOUDY    66  54  65 N17       30.03R
Pittsburg      MOCLDY    77  64  64 E3        30.10R
Akron          PTCLDY    75  64  68 N6        30.10R
Cleveland      PTCLDY    79  62  56 NE5       30.10R
Cincinnati     MOCLDY    77  71  82 CALM      30.06R
Columbus       MOCLDY    73  67  80 SE3       30.07R
Detroit        CLOUDY    78  70  76 W3        30.10R
Chicago O`Hare PTCLDY    85  69  58 S7        29.99R
Minneapolis    MOCLDY    80  69  69 SE15      29.79S
Indianapolis   PTCLDY    83  66  56 SW5       30.04R
Toronto Canada CLEAR     72  61  68 E3        30.12R

$$




USA.gov is the U.S. government's official web portal to all federal, state and local government web resources and services.